Flag for Switzerland Weather past 2 weeks in Schwyz, Schwyz, Switzerland

Now
44 °F

Quite cool.


Feels Like: 44 °F
Forecast: 33 / 46 °F
Wind: 2 mph from Southeast

Location: Altdorf

Current Time: Mar 2, 2015 at 8:57:48 AM

Latest Report: Mar 2, 2015 at 8:00 AM


Visibility: N/A

Pressure: 29.85 "Hg

Humidity: 95%

Dew point: 43 °F

Location of SchwyzLocation

Historic Weather in Schwyz — Graph

°F

Schwyz temperature yesterday

Maximum temperature yesterday: 43 °F (at 3:00 PM)
Minimum temperature yesterday: 30 °F (at 2:00 AM)
Average temperature yesterday: 39 °F

Past Weeks' High & Low Weather Summary

 TemperatureHumidityPressure
High52 °F (Feb 21, 12:00 PM)96% (Feb 16, 1:00 AM)30.70 "Hg (Feb 16, 1:00 AM)
Low25 °F (Feb 20, 6:00 AM)18% (Feb 20, 8:00 PM)29.47 "Hg (Feb 21, 12:00 PM)
Average37 °F78%30.08 "Hg
* Reported Feb 15 7:00 AM — Mar 2 7:00 AM, Schwyz, Weather by CustomWeather, © 2015

Note: Actual official high and low records may vary slightly from our data, if they occured in-between our weather recording intervals... More about our weather records

Advertising

Schwyz weather history for previous 24 hours

 ConditionsComfort  
Time TempWeatherWind HumidityBarometerVisibility
7:00 AM
Mon, Mar 2
44 °FRain. Overcast.1 mph95%29.83 "Hg6 mi
6:00 AM44 °FQuite cool.1 mph95%29.83 "HgN/A
5:00 AM44 °FQuite cool.3 mph94%29.81 "HgN/A
4:00 AM45 °FRain. Overcast.2 mph90%29.83 "Hg6 mi
3:00 AM44 °FQuite cool.3 mph94%29.86 "HgN/A
2:00 AM44 °FQuite cool.2 mph93%29.85 "HgN/A
1:00 AM44 °FRain. Overcast.5 mph90%29.87 "Hg6 mi
12:00 AM43 °FQuite cool.7 mph93%29.90 "HgN/A
11:00 PM
Sun, Mar 1
43 °FQuite cool.2 mph92%29.91 "HgN/A
10:00 PM43 °FDrizzle. Overcast.3 mph93%29.91 "Hg9 mi
9:00 PM43 °FQuite cool.2 mph92%29.91 "HgN/A
8:00 PM42 °FQuite cool.3 mph93%29.94 "HgN/A
7:00 PM42 °FLight rain. Overcast.5 mph92%29.93 "Hg11 mi
6:00 PM42 °FQuite cool.2 mph89%29.94 "HgN/A
5:00 PM43 °FQuite cool.2 mph87%29.91 "HgN/A
4:00 PM43 °FRain. Overcast.3 mph85%29.91 "Hg14 mi
3:00 PM43 °FQuite cool.3 mph89%29.91 "HgN/A
2:00 PM42 °FQuite cool.5 mph88%29.95 "HgN/A
1:00 PM43 °FOvercast.6 mph84%29.96 "Hg14 mi
12:00 PM42 °FQuite cool.5 mph84%29.96 "HgN/A
11:00 AM40 °FChilly.No wind87%29.99 "HgN/A
10:00 AM38 °FRain. Overcast.1 mph86%30.00 "Hg12 mi
9:00 AM36 °FChilly.1 mph86%30.01 "HgN/A
8:00 AM35 °FChilly.3 mph86%30.03 "HgN/A
Weather by CustomWeather, © 2015

See weather overviewHow to use our weather pages